Powrót do katalogu

STARLINK-36438

AktywnyŁącznośćVLEO
NORAD 67625·PAYLOAD·🇺🇸 United States

Wystrzelony Jan 30, 2026 z Cape Canaveral Space Force Station

Loading…

Następne Przeloty (najbliższe 24 godziny)

TLE

ŚwieżeSource: CelesTrak SupGP

Epoka: Sep 14, 2026, 22:36 UTC

1 67625C 26020J   26257.94215278 -.00064484  00000+0 -23355-2 0  2570
2 67625  42.9995 151.0352 0001459 268.4844 203.5268 15.27611954    16

Śledź STARLINK-36438 w czasie rzeczywistym z AllMySat

Download on the App Store